Oujda, Morocco

3:27 PM WEST on September 19, 2017 (GMT +0100)
Oujda

Weather History for GMFO - November, 2013

Change the Weather History Date:

Friday, November 15, 2013

  Actual Average Record
Temperature  
Mean Temperature 56 °F -  
Max Temperature 69 °F 63 °F 80 °F (2006)
Min Temperature 44 °F 44 °F 35 °F (2008)
Degree Days  
Heating Degree Days 8    
Growing Degree Days 6 (Base 50)    
Moisture  
Dew Point 47 °F    
Average Humidity 72    
Maximum Humidity 94    
Minimum Humidity 37    
Precipitation  
Precipitation 0.00 in 0.05 in - ()
Sea Level Pressure  
Sea Level Pressure 30.05 in    
Wind  
Wind Speed 6 mph ()    
Max Wind Speed 18 mph    
Max Gust Speed -    
Visibility 6.9 miles    
Events Rain    
Averages and records for this station are not official NWS values.
T = Trace of Precipitation, MM = Missing Value Source: Averaged Metar Reports

Daily Weather History Graph

Daily Weather History Graph

Search for Another Location

Airport or City:

Trip Planner

Search our weather history database for the weather conditions in past years. The results will help you decide how hot, cold, wet, or windy it might be!

Date:

Astronomy

Nov. 15, 2013 Rise Set
Actual Time 6:41 AM WET 5:02 PM WET
Civil Twilight 6:14 AM WET 5:29 PM WET
Nautical Twilight 5:44 AM WET 5:59 PM WET
Astronomical Twilight 5:14 AM WET 6:29 PM WET
Moon 3:46 PM WET (11/15) 4:28 AM WET (11/15)
Length of Visible Light 11h 14m
Length of Day
10h 20m
Waxing Gibbous, 95% of the Moon is Illuminated
Nov 15
Waxing Gibbous
Nov 17
Full
Nov 25
Last Quarter
Dec 3
New
Dec 9
First Quarter

Hourly Weather History & Observations

Time (WET) Temp. Windchill Dew Point Humidity Pressure Visibility Wind Dir Wind Speed Gust Speed Precip Events Conditions
12:00 AM 48 °F - 44 °F 83% 30.22 in 9 mi WSW 5.8 mph - -   Scattered Clouds
12:00 AM 48.2 °F - 44.6 °F 87% 30.21 in 6.2 mi WSW 5.8 mph - N/A   Partly Cloudy
2:00 AM 48.2 °F - 44.6 °F 87% 30.15 in - SSW 6.9 mph - N/A   Clear
3:00 AM 48 °F - 46 °F 89% 30.17 in 9 mi SW 5.8 mph - -  
4:00 AM 46.4 °F 45.2 °F 44.6 °F 93% 30.12 in - North 3.5 mph - N/A   Clear
5:00 AM 46.4 °F 42.4 °F 42.8 °F 87% 30.09 in - South 8.1 mph - N/A   Clear
6:00 AM 46 °F - 44 °F 89% 30.13 in 9 mi West 3.5 mph - -  
8:00 AM 51.8 °F - 50.0 °F 94% 30.12 in 5.0 mi SSW 5.8 mph - N/A   Partly Cloudy
9:00 AM 57 °F - 52 °F 79% 30.10 in 6 mi SSW 8.1 mph - -   Scattered Clouds
9:00 AM 57.2 °F - 51.8 °F 82% 30.09 in 6.2 mi SSW 8.1 mph - N/A   Partly Cloudy
10:00 AM 62.6 °F - 48.2 °F 59% 30.09 in 6.2 mi South 4.6 mph - N/A   Partly Cloudy
11:00 AM 66.2 °F - 48.2 °F 52% 30.04 in 6.2 mi WSW 4.6 mph - N/A   Partly Cloudy
12:00 PM 68 °F - 47 °F 37% 29.96 in 7 mi NW 4.6 mph - -   Scattered Clouds
12:00 PM 68.0 °F - 48.2 °F 49% 30.01 in 6.2 mi NW 4.6 mph - N/A   Partly Cloudy
1:00 PM 69.8 °F - 46.4 °F 43% 29.98 in 6.2 mi Variable 3.5 mph - N/A   Partly Cloudy
2:00 PM 62.6 °F - 51.8 °F 68% 29.95 in 6.2 mi NNE 18.4 mph - N/A   Scattered Clouds
3:00 PM 62 °F - 49 °F 52% 29.91 in 9 mi East 11.5 mph - -   Mostly Cloudy
3:00 PM 60.8 °F - 48.2 °F 63% 29.92 in 6.2 mi East 11.5 mph - N/A   Scattered Clouds
4:00 PM 59.0 °F - 48.2 °F 67% 29.95 in 6.2 mi East 15.0 mph - N/A   Mostly Cloudy
8:00 PM 51.8 °F - 44.6 °F 76% 29.98 in 6.2 mi ENE 17.3 mph - N/A   Mostly Cloudy
9:00 PM 49 °F - 42 °F 69% 29.99 in 9 mi ENE 18.4 mph - -   Scattered Clouds
11:00 PM 46.4 °F 42.9 °F 42.8 °F 87% 29.95 in 6.2 mi NE 6.9 mph - N/A Rain Rain